Dewpoint
29 37 40 41 40 49 65 66 67 68 67 67 67 67 66 66 66 66 67 67 67 66 65 65 65 65 64 63 62 62 61 60
30 41 43 45 45 46 63 66 67 67 67 66 66 65 65 65 66 66 66 67 66 66 66 65 64 63 60 59 55 51 50 50
30 44 47 50 50 49 58 66 67 66 67 66 65 65 65 65 66 66 66 65 65 65 61 57 51 50 50 49 48 48 48 47
30 45 47 52 54 53 59 67 66 66 66 66 65 65 65 65 65 64 63 59 53 51 48 47 46 45 44 46 45 44 43 45
28 41 46 51 55 57 65 65 66 66 66 65 64 62 60 58 56 53 52 49 46 44 43 43 43 43 42 43 42 46 45 43
27 31 44 50 55 58 63 63 64 65 63 62 60 56 53 52 49 47 44 44 42 39 39 41 42 44 44 44 44 44 45 44
28 29 44 49 54 61 63 63 62 62 60 58 55 51 48 45 44 41 42 41 40 39 39 41 43 43 44 44 45 45 44 45
30 31 44 50 56 62 61 60 58 56 55 50 49 47 44 43 41 38 38 36 36 39 40 41 43 43 44 44 45 45 45 45
33 35 46 53 57 61 59 57 53 51 49 47 46 44 42 40 38 37 36 36 36 40 40 42 42 44 44 45 46 46 45 45
35 37 46 53 57 58 55 52 50 47 45 43 42 38 39 37 38 38 38 39 37 41 42 43 44 44 43 42 42 42 42 42
28 37 47 54 55 55 54 52 47 43 43 42 40 39 40 40 40 39 39 40 40 42 42 42 41 41 41 41 41 40 40 40
31 39 50 53 54 53 52 49 44 42 42 40 39 40 41 40 40 39 40 41 41 41 41 41 41 40 40 39 39 38 37 37
38 44 47 51 51 50 49 45 41 41 40 41 41 41 40 40 39 40 41 40 41 41 40 39 39 38 38 37 37 36 35 34
36 45 46 47 48 47 45 41 40 40 39 41 42 41 40 40 40 40 41 40 40 39 38 37 37 37 37 36 36 35 34 34
36 43 45 45 46 44 42 39 39 38 39 42 41 40 40 40 40 40 40 39 38 37 36 36 36 36 35 34 34 34 33 33
36 43 44 44 45 43 40 39 38 38 40 41 41 41 40 40 40 39 38 38 37 36 35 35 35 35 33 33 33 32 32 32
40 43 44 43 43 42 40 38 37 38 39 41 41 40 40 40 39 38 37 36 35 35 35 34 34 33 34 33 33 32 31 32
37 41 44 43 43 41 39 36 37 37 40 40 40 40 38 38 37 36 35 35 35 34 34 34 33 33 34 33 32 31 32 33
35 38 42 43 42 40 37 36 36 38 40 39 40 37 34 35 35 32 32 34 33 33 33 34 33 34 33 33 31 32 32 34
Wind_Speed
16 16 12 12 13 12 27 25 25 23 17 16 10 15 14 11 11 10 10 9 9 8 6 6 5 4 6 7 8 9 6 8
18 18 10 8 11 14 24 25 24 23 18 18 15 16 13 11 11 12 10 10 9 8 5 6 7 8 4 3 1 5 8 8
16 18 12 11 13 14 15 23 21 20 15 15 12 14 14 13 13 12 11 10 9 11 7 5 7 5 6 4 4 5 8 10
17 24 21 16 14 13 13 22 21 18 16 13 13 13 12 11 13 14 13 13 9 10 8 7 6 4 3 3 4 7 11 9
25 24 25 23 19 16 18 20 20 18 19 17 19 14 16 12 15 11 13 13 10 10 7 5 3 2 3 4 5 6 7 11
20 16 25 23 21 19 16 21 20 19 19 20 18 18 15 14 15 17 14 10 9 7 8 4 3 1 3 5 7 9 9 10
25 19 25 23 18 19 18 20 19 18 21 20 20 23 19 19 16 17 13 12 9 8 6 6 2 2 3 5 7 8 10 12
18 15 24 23 20 22 20 18 18 19 21 20 22 22 22 20 18 14 14 11 6 7 5 5 4 5 6 7 8 9 11 12
16 16 23 25 22 24 22 20 19 21 24 22 21 21 18 18 15 14 9 9 6 7 4 3 5 7 7 8 8 10 11 12
19 18 20 23 23 23 23 23 22 23 22 21 19 19 19 17 16 13 10 8 5 6 5 4 5 8 9 9 9 10 10 11
15 21 24 24 24 22 22 24 25 24 21 20 18 18 17 18 16 11 9 7 5 5 3 4 4 4 5 7 7 9 11 12
11 19 24 25 26 25 21 22 24 22 20 19 19 18 18 16 14 12 9 7 5 3 3 5 6 8 9 9 10 11 12 14
18 22 25 24 25 24 20 21 24 22 20 19 19 19 18 16 14 12 10 7 7 7 7 7 7 8 9 9 10 11 13 14
19 26 29 29 29 28 25 22 22 23 21 19 19 17 17 15 13 12 10 8 7 5 3 6 7 8 8 8 9 9 11 13
17 28 29 27 28 29 27 22 23 23 22 21 19 18 16 15 13 12 10 8 5 4 6 6 6 5 7 7 8 10 12 14
16 27 28 29 27 26 26 24 24 22 22 21 19 17 17 15 14 12 10 7 6 7 5 5 4 5 5 7 8 11 14 17
21 25 27 30 32 31 30 27 25 23 22 21 18 16 16 15 14 11 9 9 9 4 3 3 4 4 7 9 9 12 14 16
22 26 30 30 32 33 32 29 26 24 21 21 18 15 16 14 12 10 11 11 4 1 1 3 4 6 8 10 11 11 14 15
24 25 27 29 29 30 28 29 28 24 21 20 18 18 18 14 13 13 12 6 2 3 0 2 5 7 9 10 13 12 12 13
Wind_Direction
213 194 203 208 229 166 160 160 160 164 174 174 147 155 169 185 178 169 161 157 174 170 176 194 199 184 184 180 209 206 233 249
204 169 166 232 210 190 159 159 162 161 165 166 154 160 158 156 150 151 167 164 178 161 177 207 197 202 189 157 274 314 303 312
201 148 168 207 218 184 172 157 150 158 159 167 167 161 172 169 160 160 154 153 156 184 170 146 92 53 29 11 351 315 296 297
224 162 173 182 221 188 180 147 155 157 154 149 154 181 166 156 158 154 162 147 124 99 89 63 57 56 315 342 347 305 290 288
220 175 172 180 195 184 148 145 157 156 158 161 178 164 157 154 145 134 127 133 128 116 102 103 86 18 331 314 330 347 323 301
224 217 177 180 178 175 157 156 160 155 157 160 164 150 148 151 137 136 137 127 131 128 116 101 80 34 346 343 316 304 299 295
209 214 170 172 173 150 135 142 150 153 156 158 162 155 150 144 144 140 157 151 158 142 132 119 87 22 343 347 335 317 304 299
184 194 166 165 162 142 143 158 155 164 162 158 157 152 145 144 147 161 145 138 158 114 84 53 16 0 345 333 316 305 301 290
192 176 161 160 166 157 158 166 167 170 163 155 152 146 145 144 156 134 138 125 120 84 68 48 16 356 334 331 334 332 330 327
178 188 175 166 162 158 159 166 169 170 160 149 143 142 141 145 124 125 134 118 137 91 51 24 13 21 4 340 325 316 318 316
210 188 175 165 163 157 164 172 170 167 155 147 148 140 126 124 131 133 116 102 90 63 46 46 1 336 316 322 318 313 311 309
224 177 163 160 159 160 170 169 162 158 152 148 142 136 128 129 128 122 114 103 90 67 37 28 3 357 2 352 340 328 317 309
179 162 159 153 156 159 170 166 163 156 156 148 142 137 136 135 130 124 115 118 88 64 39 23 4 360 2 344 326 313 311 314
190 165 163 160 162 164 170 167 161 158 156 147 141 141 141 134 131 123 117 105 88 69 48 22 21 5 336 313 301 322 320 315
198 168 165 166 167 165 168 166 162 161 154 148 149 153 143 137 127 120 112 96 98 76 43 39 20 332 309 310 337 333 320 311
192 171 166 167 168 166 170 166 165 163 157 157 156 144 135 127 127 118 113 114 87 51 39 28 334 310 324 358 334 324 315 309
156 167 167 172 175 172 174 167 167 160 162 151 147 145 138 133 126 132 140 95 63 58 46 330 336 319 358 341 335 322 314 308
177 179 179 180 180 174 176 165 161 159 149 147 149 144 135 133 137 142 96 80 92 48 40 17 318 326 336 336 334 321 310 307
195 187 187 184 178 174 169 162 161 156 140 144 140 147 141 138 144 113 101 105 156 213 86 338 324 328 333 333 334 318 314 306